owner,sensor,date,latitude,longitude,vertical_datum,wind_speed,wind_to_direction,wind_speed_of_gust,qcFlag 
ADCP,ioos:station:wmo:42887:1,2015-12-01T00:00:00Z,28.1910,-88.4960,48.2,3.7,115.0,99.0,'11111222,11111222,11144222' 
ADCP,ioos:station:wmo:42887:1,2015-12-01T00:20:00Z,28.1910,-88.4960,48.2,4.3,125.0,99.0,'11111222,11111222,11144222' 
ADCP,ioos:station:wmo:42887:1,2015-12-01T00:40:00Z,28.1910,-88.4960,48.2,3.5,129.0,99.0,'11111222,11111222,11144222' 
ADCP,ioos:station:wmo:42887:1,2015-12-01T01:00:00Z,28.1910,-88.4960,48.2,3.8,135.0,99.0,'11111222,11111222,11144222' 
ADCP,ioos:station:wmo:42887:1,2015-12-01T01:20:00Z,28.1910,-88.4960,48.2,3.4,149.0,99.0,'11111222,11111222,11144222' 
ADCP,ioos:station:wmo:42887:1,2015-12-01T01:40:00Z,28.1910,-88.4960,48.2,4.0,153.0,99.0,'11111222,11111222,11144222' 
ADCP,ioos:station:wmo:42887:1,2015-12-01T02:00:00Z,28.1910,-88.4960,48.2,4.2,151.0,99.0,'11111222,11111222,11144222' 
ADCP,ioos:station:wmo:42887:1,2015-12-01T02:20:00Z,28.1910,-88.4960,48.2,4.7,155.0,99.0,'11111222,11111222,11144222' 
ADCP,ioos:station:wmo:42887:1,2015-12-01T02:40:00Z,28.1910,-88.4960,48.2,4.1,170.0,99.0,'11111222,11111222,11144222' 
ADCP,ioos:station:wmo:42887:1,2015-12-01T03:00:00Z,28.1910,-88.4960,48.2,4.1,166.0,99.0,'11111222,11111222,11144222' 
ADCP,ioos:station:wmo:42887:1,2015-12-01T03:20:00Z,28.1910,-88.4960,48.2,3.7,169.0,99.0,'11111222,11111222,11144222' 
ADCP,ioos:station:wmo:42887:1,2015-12-01T03:40:00Z,28.1910,-88.4960,48.2,4.1,181.0,99.0,'11111222,11111222,11144222' 
ADCP,ioos:station:wmo:42887:1,2015-12-01T04:00:00Z,28.1910,-88.4960,48.2,3.9,195.0,99.0,'11111222,11111222,11144222' 
ADCP,ioos:station:wmo:42887:1,2015-12-01T04:20:00Z,28.1910,-88.4960,48.2,3.8,190.0,99.0,'11111222,11111222,11144222' 
ADCP,ioos:station:wmo:42887:1,2015-12-01T04:40:00Z,28.1910,-88.4960,48.2,4.4,178.0,99.0,'11111222,11111222,11144222' 
ADCP,ioos:station:wmo:42887:1,2015-12-01T05:00:00Z,28.1910,-88.4960,48.2,3.6,184.0,99.0,'11111222,11111222,11144222' 
ADCP,ioos:station:wmo:42887:1,2015-12-01T05:20:00Z,28.1910,-88.4960,48.2,2.6,182.0,99.0,'11111222,11111222,11144222' 
ADCP,ioos:station:wmo:42887:1,2015-12-01T05:40:00Z,28.1910,-88.4960,48.2,4.5,181.0,99.0,'11111222,11111222,11144222' 
ADCP,ioos:station:wmo:42887:1,2015-12-01T06:00:00Z,28.1910,-88.4960,48.2,2.9,179.0,99.0,'11111222,11111222,11144222' 
ADCP,ioos:station:wmo:42887:1,2015-12-01T06:20:00Z,28.1910,-88.4960,48.2,4.2,184.0,99.0,'11111222,11111222,11144222' 
ADCP,ioos:station:wmo:42887:1,2015-12-01T06:40:00Z,28.1910,-88.4960,48.2,3.8,188.0,99.0,'11111222,11111222,11144222' 
ADCP,ioos:station:wmo:42887:1,2015-12-01T07:00:00Z,28.1910,-88.4960,48.2,3.9,185.0,99.0,'11111222,11111222,11144222' 
ADCP,ioos:station:wmo:42887:1,2015-12-01T07:20:00Z,28.1910,-88.4960,48.2,3.6,176.0,99.0,'11111222,11111222,11144222' 
ADCP,ioos:station:wmo:42887:1,2015-12-01T07:40:00Z,28.1910,-88.4960,48.2,3.3,183.0,99.0,'11111222,11111222,11144222' 
ADCP,ioos:station:wmo:42887:1,2015-12-01T08:00:00Z,28.1910,-88.4960,48.2,3.3,182.0,99.0,'11111222,11111222,11144222' 
ADCP,ioos:station:wmo:42887:1,2015-12-01T08:20:00Z,28.1910,-88.4960,48.2,2.7,181.0,99.0,'11111222,11111222,11144222' 
ADCP,ioos:station:wmo:42887:1,2015-12-01T08:40:00Z,28.1910,-88.4960,48.2,2.5,175.0,99.0,'11111222,11111222,11144222' 
ADCP,ioos:station:wmo:42887:1,2015-12-01T09:00:00Z,28.1910,-88.4960,48.2,2.9,177.0,99.0,'11111222,11111222,11144222' 
ADCP,ioos:station:wmo:42887:1,2015-12-01T09:20:00Z,28.1910,-88.4960,48.2,2.2,174.0,99.0,'11111222,11111222,11144222' 
ADCP,ioos:station:wmo:42887:1,2015-12-01T09:40:00Z,28.1910,-88.4960,48.2,2.6,162.0,99.0,'11111222,11111222,11144222' 
ADCP,ioos:station:wmo:42887:1,2015-12-01T10:00:00Z,28.1910,-88.4960,48.2,1.7,165.0,99.0,'11111222,11111222,11144222' 
ADCP,ioos:station:wmo:42887:1,2015-12-01T10:20:00Z,28.1910,-88.4960,48.2,2.0,172.0,99.0,'11111222,11111222,11144222' 
ADCP,ioos:station:wmo:42887:1,2015-12-01T10:40:00Z,28.1910,-88.4960,48.2,1.3,177.0,99.0,'11111222,11111222,11144222' 
ADCP,ioos:station:wmo:42887:1,2015-12-01T11:00:00Z,28.1910,-88.4960,48.2,2.0,166.0,99.0,'11111222,11111222,11144222' 
ADCP,ioos:station:wmo:42887:1,2015-12-01T11:20:00Z,28.1910,-88.4960,48.2,1.6,157.0,99.0,'11111222,11111222,11144222' 
ADCP,ioos:station:wmo:42887:1,2015-12-01T11:40:00Z,28.1910,-88.4960,48.2,2.5,147.0,99.0,'11111222,11111222,11144222' 
ADCP,ioos:station:wmo:42887:1,2015-12-01T12:00:00Z,28.1910,-88.4960,48.2,1.3,141.0,99.0,'11111222,11111222,11144222' 
ADCP,ioos:station:wmo:42887:1,2015-12-01T12:20:00Z,28.1910,-88.4960,48.2,0.6,142.0,99.0,'11111222,11111222,11144222' 
ADCP,ioos:station:wmo:42887:1,2015-12-01T12:40:00Z,28.1910,-88.4960,48.2,2.0,140.0,99.0,'11111222,11111222,11144222' 
ADCP,ioos:station:wmo:42887:1,2015-12-01T13:00:00Z,28.1910,-88.4960,48.2,1.7,139.0,99.0,'11111222,11111222,11144222' 
ADCP,ioos:station:wmo:42887:1,2015-12-01T13:20:00Z,28.1910,-88.4960,48.2,2.9,138.0,99.0,'11111222,11111222,11144222' 
ADCP,ioos:station:wmo:42887:1,2015-12-01T13:40:00Z,28.1910,-88.4960,48.2,2.8,137.0,99.0,'11111222,11111222,11144222' 
ADCP,ioos:station:wmo:42887:1,2015-12-01T14:00:00Z,28.1910,-88.4960,48.2,2.5,147.0,99.0,'11111222,11111222,11144222' 
ADCP,ioos:station:wmo:42887:1,2015-12-01T14:20:00Z,28.1910,-88.4960,48.2,2.2,137.0,99.0,'11111222,11111222,11144222' 
ADCP,ioos:station:wmo:42887:1,2015-12-01T14:40:00Z,28.1910,-88.4960,48.2,1.8,140.0,99.0,'11111222,11111222,11144222' 
ADCP,ioos:station:wmo:42887:1,2015-12-01T15:00:00Z,28.1910,-88.4960,48.2,2.1,144.0,99.0,'11111222,11111222,11144222' 
ADCP,ioos:station:wmo:42887:1,2015-12-01T15:20:00Z,28.1910,-88.4960,48.2,1.7,129.0,99.0,'11111222,11111222,11144222' 
ADCP,ioos:station:wmo:42887:1,2015-12-01T15:40:00Z,28.1910,-88.4960,48.2,2.9,136.0,99.0,'11111222,11111222,11144222' 
ADCP,ioos:station:wmo:42887:1,2015-12-01T16:00:00Z,28.1910,-88.4960,48.2,2.4,141.0,99.0,'11111222,11111222,11144222' 
ADCP,ioos:station:wmo:42887:1,2015-12-01T16:20:00Z,28.1910,-88.4960,48.2,3.5,139.0,99.0,'11111222,11111222,11144222' 
ADCP,ioos:station:wmo:42887:1,2015-12-01T16:40:00Z,28.1910,-88.4960,48.2,4.4,135.0,99.0,'11111222,11111222,11144222' 
ADCP,ioos:station:wmo:42887:1,2015-12-01T17:00:00Z,28.1910,-88.4960,48.2,4.7,141.0,99.0,'11111222,11111222,11144222' 
ADCP,ioos:station:wmo:42887:1,2015-12-01T17:20:00Z,28.1910,-88.4960,48.2,4.4,141.0,99.0,'11111222,11111222,11144222' 
ADCP,ioos:station:wmo:42887:1,2015-12-01T17:40:00Z,28.1910,-88.4960,48.2,5.2,139.0,99.0,'11111222,11111222,11144222' 
ADCP,ioos:station:wmo:42887:1,2015-12-01T18:00:00Z,28.1910,-88.4960,48.2,5.2,142.0,99.0,'11111222,11111222,11144222' 
ADCP,ioos:station:wmo:42887:1,2015-12-01T18:20:00Z,28.1910,-88.4960,48.2,4.7,135.0,99.0,'11111222,11111222,11144222' 
ADCP,ioos:station:wmo:42887:1,2015-12-01T18:40:00Z,28.1910,-88.4960,48.2,5.1,138.0,99.0,'11111222,11111222,11144222' 
ADCP,ioos:station:wmo:42887:1,2015-12-01T19:00:00Z,28.1910,-88.4960,48.2,4.2,140.0,99.0,'11111222,11111222,11144222' 
ADCP,ioos:station:wmo:42887:1,2015-12-01T19:20:00Z,28.1910,-88.4960,48.2,3.9,142.0,99.0,'11111222,11111222,11144222' 
ADCP,ioos:station:wmo:42887:1,2015-12-01T19:40:00Z,28.1910,-88.4960,48.2,3.9,145.0,99.0,'11111222,11111222,11144222' 
ADCP,ioos:station:wmo:42887:1,2015-12-01T20:00:00Z,28.1910,-88.4960,48.2,4.4,144.0,99.0,'11111222,11111222,11144222' 
ADCP,ioos:station:wmo:42887:1,2015-12-01T20:20:00Z,28.1910,-88.4960,48.2,3.7,144.0,99.0,'11111222,11111222,11144222' 
ADCP,ioos:station:wmo:42887:1,2015-12-01T20:40:00Z,28.1910,-88.4960,48.2,4.5,149.0,99.0,'11111222,11111222,11144222' 
ADCP,ioos:station:wmo:42887:1,2015-12-01T21:00:00Z,28.1910,-88.4960,48.2,5.2,149.0,99.0,'11111222,11111222,11144222' 
ADCP,ioos:station:wmo:42887:1,2015-12-01T21:20:00Z,28.1910,-88.4960,48.2,4.0,158.0,99.0,'11111222,11111222,11144222' 
ADCP,ioos:station:wmo:42887:1,2015-12-01T21:40:00Z,28.1910,-88.4960,48.2,3.0,138.0,99.0,'11111222,11111222,11144222' 
ADCP,ioos:station:wmo:42887:1,2015-12-01T22:00:00Z,28.1910,-88.4960,48.2,3.8,148.0,99.0,'11111222,11111222,11144222' 
ADCP,ioos:station:wmo:42887:1,2015-12-01T22:20:00Z,28.1910,-88.4960,48.2,4.5,155.0,99.0,'11111222,11111222,11144222' 
ADCP,ioos:station:wmo:42887:1,2015-12-01T22:40:00Z,28.1910,-88.4960,48.2,4.7,149.0,99.0,'11111222,11111222,11144222' 
ADCP,ioos:station:wmo:42887:1,2015-12-01T23:00:00Z,28.1910,-88.4960,48.2,4.4,149.0,99.0,'11111222,11111222,11144222' 
ADCP,ioos:station:wmo:42887:1,2015-12-01T23:20:00Z,28.1910,-88.4960,48.2,5.2,144.0,99.0,'11111222,11111222,11144222' 
ADCP,ioos:station:wmo:42887:1,2015-12-01T23:40:00Z,28.1910,-88.4960,48.2,4.8,149.0,99.0,'11111222,11111222,11144222' 
ADCP,ioos:station:wmo:42887:1,2015-12-02T00:00:00Z,28.1910,-88.4960,48.2,3.9,143.0,99.0,'11111222,11111222,11144222' 
ADCP,ioos:station:wmo:42887:1,2015-12-02T00:20:00Z,28.1910,-88.4960,48.2,4.1,143.0,99.0,'11111222,11111222,11144222' 
ADCP,ioos:station:wmo:42887:1,2015-12-02T00:40:00Z,28.1910,-88.4960,48.2,4.6,143.0,99.0,'11111222,11111222,11144222' 
ADCP,ioos:station:wmo:42887:1,2015-12-02T01:00:00Z,28.1910,-88.4960,48.2,6.0,145.0,99.0,'11111222,11111222,11144222' 
ADCP,ioos:station:wmo:42887:1,2015-12-02T01:20:00Z,28.1910,-88.4960,48.2,5.2,148.0,99.0,'11111222,11111222,11144222' 
ADCP,ioos:station:wmo:42887:1,2015-12-02T01:40:00Z,28.1910,-88.4960,48.2,6.4,173.0,99.0,'11111222,11111222,11144222' 
ADCP,ioos:station:wmo:42887:1,2015-12-02T02:00:00Z,28.1910,-88.4960,48.2,7.5,172.0,99.0,'11111222,11111222,11144222' 
ADCP,ioos:station:wmo:42887:1,2015-12-02T02:20:00Z,28.1910,-88.4960,48.2,8.1,173.0,99.0,'11111222,11111222,11144222' 
ADCP,ioos:station:wmo:42887:1,2015-12-02T02:40:00Z,28.1910,-88.4960,48.2,7.8,207.0,99.0,'11111222,11111222,11144222' 
ADCP,ioos:station:wmo:42887:1,2015-12-02T03:00:00Z,28.1910,-88.4960,48.2,4.7,186.0,99.0,'11111222,11111222,11144222' 
ADCP,ioos:station:wmo:42887:1,2015-12-02T03:20:00Z,28.1910,-88.4960,48.2,3.7,181.0,99.0,'11111222,11111222,11144222' 
ADCP,ioos:station:wmo:42887:1,2015-12-02T03:40:00Z,28.1910,-88.4960,48.2,4.4,188.0,99.0,'11111222,11111222,11144222' 
ADCP,ioos:station:wmo:42887:1,2015-12-02T04:00:00Z,28.1910,-88.4960,48.2,4.8,181.0,99.0,'11111222,11111222,11144222' 
ADCP,ioos:station:wmo:42887:1,2015-12-02T04:20:00Z,28.1910,-88.4960,48.2,7.0,189.0,99.0,'11111222,11111222,11144222' 
ADCP,ioos:station:wmo:42887:1,2015-12-02T04:40:00Z,28.1910,-88.4960,48.2,4.1,235.0,99.0,'11111222,11111222,11144222' 
ADCP,ioos:station:wmo:42887:1,2015-12-02T05:00:00Z,28.1910,-88.4960,48.2,3.0,263.0,99.0,'11111222,11111222,11144222' 
ADCP,ioos:station:wmo:42887:1,2015-12-02T05:20:00Z,28.1910,-88.4960,48.2,2.2,263.0,99.0,'11111222,11111222,11144222' 
ADCP,ioos:station:wmo:42887:1,2015-12-02T05:40:00Z,28.1910,-88.4960,48.2,2.5,256.0,99.0,'11111222,11111222,11144222' 
ADCP,ioos:station:wmo:42887:1,2015-12-02T06:00:00Z,28.1910,-88.4960,48.2,1.9,234.0,99.0,'11111222,11111222,11144222' 
ADCP,ioos:station:wmo:42887:1,2015-12-02T06:20:00Z,28.1910,-88.4960,48.2,2.1,231.0,99.0,'11111222,11111222,11144222' 
ADCP,ioos:station:wmo:42887:1,2015-12-02T06:40:00Z,28.1910,-88.4960,48.2,2.5,227.0,99.0,'11111222,11111222,11144222' 
ADCP,ioos:station:wmo:42887:1,2015-12-02T07:00:00Z,28.1910,-88.4960,48.2,2.1,193.0,99.0,'11111222,11111222,11144222' 
ADCP,ioos:station:wmo:42887:1,2015-12-02T07:20:00Z,28.1910,-88.4960,48.2,2.2,220.0,99.0,'11111222,11111222,11144222' 
ADCP,ioos:station:wmo:42887:1,2015-12-02T07:40:00Z,28.1910,-88.4960,48.2,2.5,222.0,99.0,'11111222,11111222,11144222' 
ADCP,ioos:station:wmo:42887:1,2015-12-02T08:00:00Z,28.1910,-88.4960,48.2,3.3,190.0,99.0,'11111222,11111222,11144222' 
ADCP,ioos:station:wmo:42887:1,2015-12-02T08:20:00Z,28.1910,-88.4960,48.2,1.7,184.0,99.0,'11111222,11111222,11144222' 
ADCP,ioos:station:wmo:42887:1,2015-12-02T08:40:00Z,28.1910,-88.4960,48.2,2.0,267.0,99.0,'11111222,11111222,11144222' 
ADCP,ioos:station:wmo:42887:1,2015-12-02T09:00:00Z,28.1910,-88.4960,48.2,5.1,266.0,99.0,'11111222,11111222,11144222' 
ADCP,ioos:station:wmo:42887:1,2015-12-02T09:20:00Z,28.1910,-88.4960,48.2,4.8,270.0,99.0,'11111222,11111222,11144222' 
ADCP,ioos:station:wmo:42887:1,2015-12-02T09:40:00Z,28.1910,-88.4960,48.2,3.8,282.0,99.0,'11111222,11111222,11144222' 
ADCP,ioos:station:wmo:42887:1,2015-12-02T10:00:00Z,28.1910,-88.4960,48.2,4.9,286.0,99.0,'11111222,11111222,11144222' 
ADCP,ioos:station:wmo:42887:1,2015-12-02T10:20:00Z,28.1910,-88.4960,48.2,3.7,272.0,99.0,'11111222,11111222,11144222' 
ADCP,ioos:station:wmo:42887:1,2015-12-02T10:40:00Z,28.1910,-88.4960,48.2,2.3,266.0,99.0,'11111222,11111222,11144222' 
ADCP,ioos:station:wmo:42887:1,2015-12-02T11:00:00Z,28.1910,-88.4960,48.2,2.5,262.0,99.0,'11111222,11111222,11144222' 
ADCP,ioos:station:wmo:42887:1,2015-12-02T11:20:00Z,28.1910,-88.4960,48.2,1.2,261.0,99.0,'11111222,11111222,11144222' 
ADCP,ioos:station:wmo:42887:1,2015-12-02T11:40:00Z,28.1910,-88.4960,48.2,4.2,271.0,99.0,'11111222,11111222,11144222' 
ADCP,ioos:station:wmo:42887:1,2015-12-02T12:00:00Z,28.1910,-88.4960,48.2,4.5,291.0,99.0,'11111222,11111222,11144222' 
ADCP,ioos:station:wmo:42887:1,2015-12-02T12:20:00Z,28.1910,-88.4960,48.2,6.8,308.0,99.0,'11111222,11111222,11144222' 
ADCP,ioos:station:wmo:42887:1,2015-12-02T12:40:00Z,28.1910,-88.4960,48.2,6.5,298.0,99.0,'11111222,11111222,11144222' 
ADCP,ioos:station:wmo:42887:1,2015-12-02T13:00:00Z,28.1910,-88.4960,48.2,8.4,303.0,99.0,'11111222,11111222,11144222' 
ADCP,ioos:station:wmo:42887:1,2015-12-02T13:20:00Z,28.1910,-88.4960,48.2,4.9,307.0,99.0,'11111222,11111222,11144222' 
ADCP,ioos:station:wmo:42887:1,2015-12-02T13:40:00Z,28.1910,-88.4960,48.2,0.6,279.0,99.0,'11111222,11111222,11144222' 
ADCP,ioos:station:wmo:42887:1,2015-12-02T14:00:00Z,28.1910,-88.4960,48.2,3.5,2.0,99.0,'11111222,11111222,11144222' 
ADCP,ioos:station:wmo:42887:1,2015-12-02T14:20:00Z,28.1910,-88.4960,48.2,3.3,357.0,99.0,'11111222,11111222,11144222' 
ADCP,ioos:station:wmo:42887:1,2015-12-02T14:40:00Z,28.1910,-88.4960,48.2,4.5,15.0,99.0,'11111222,11111222,11144222' 
ADCP,ioos:station:wmo:42887:1,2015-12-02T15:00:00Z,28.1910,-88.4960,48.2,4.1,15.0,99.0,'11111222,11111222,11144222' 
ADCP,ioos:station:wmo:42887:1,2015-12-02T15:20:00Z,28.1910,-88.4960,48.2,3.5,11.0,99.0,'11111222,11111222,11144222' 
ADCP,ioos:station:wmo:42887:1,2015-12-02T15:40:00Z,28.1910,-88.4960,48.2,3.5,15.0,99.0,'11111222,11111222,11144222' 
ADCP,ioos:station:wmo:42887:1,2015-12-02T16:00:00Z,28.1910,-88.4960,48.2,4.1,3.0,99.0,'11111222,11111222,11144222' 
ADCP,ioos:station:wmo:42887:1,2015-12-02T16:20:00Z,28.1910,-88.4960,48.2,7.0,10.0,99.0,'11111222,11111222,11144222' 
ADCP,ioos:station:wmo:42887:1,2015-12-02T16:40:00Z,28.1910,-88.4960,48.2,7.5,8.0,99.0,'11111222,11111222,11144222' 
ADCP,ioos:station:wmo:42887:1,2015-12-02T17:00:00Z,28.1910,-88.4960,48.2,6.3,4.0,99.0,'11111222,11111222,11144222' 
ADCP,ioos:station:wmo:42887:1,2015-12-02T17:20:00Z,28.1910,-88.4960,48.2,6.9,15.0,99.0,'11111222,11111222,11144222' 
ADCP,ioos:station:wmo:42887:1,2015-12-02T17:40:00Z,28.1910,-88.4960,48.2,6.7,11.0,99.0,'11111222,11111222,11144222' 
ADCP,ioos:station:wmo:42887:1,2015-12-02T18:00:00Z,28.1910,-88.4960,48.2,6.7,8.0,99.0,'11111222,11111222,11144222' 
ADCP,ioos:station:wmo:42887:1,2015-12-02T18:20:00Z,28.1910,-88.4960,48.2,8.1,5.0,99.0,'11111222,11111222,11144222' 
ADCP,ioos:station:wmo:42887:1,2015-12-02T18:40:00Z,28.1910,-88.4960,48.2,7.8,351.0,99.0,'11111222,11111222,11144222' 
ADCP,ioos:station:wmo:42887:1,2015-12-02T19:00:00Z,28.1910,-88.4960,48.2,7.5,1.0,99.0,'11111222,11111222,11144222' 
ADCP,ioos:station:wmo:42887:1,2015-12-02T19:20:00Z,28.1910,-88.4960,48.2,5.7,355.0,99.0,'11111222,11111222,11144222' 
ADCP,ioos:station:wmo:42887:1,2015-12-02T19:40:00Z,28.1910,-88.4960,48.2,7.7,351.0,99.0,'11111222,11111222,11144222' 
ADCP,ioos:station:wmo:42887:1,2015-12-02T20:00:00Z,28.1910,-88.4960,48.2,7.4,2.0,99.0,'11111222,11111222,11144222' 
ADCP,ioos:station:wmo:42887:1,2015-12-02T20:20:00Z,28.1910,-88.4960,48.2,6.7,5.0,99.0,'11111222,11111222,11144222' 
ADCP,ioos:station:wmo:42887:1,2015-12-02T20:40:00Z,28.1910,-88.4960,48.2,8.8,7.0,99.0,'11111222,11111222,11144222' 
ADCP,ioos:station:wmo:42887:1,2015-12-02T21:00:00Z,28.1910,-88.4960,48.2,8.8,9.0,99.0,'11111222,11111222,11144222' 
ADCP,ioos:station:wmo:42887:1,2015-12-02T21:20:00Z,28.1910,-88.4960,48.2,8.2,14.0,99.0,'11111222,11111222,11144222' 
ADCP,ioos:station:wmo:42887:1,2015-12-02T21:40:00Z,28.1910,-88.4960,48.2,8.1,23.0,99.0,'11111222,11111222,11144222' 
ADCP,ioos:station:wmo:42887:1,2015-12-02T22:00:00Z,28.1910,-88.4960,48.2,8.0,2.0,99.0,'11111222,11111222,11144222' 
ADCP,ioos:station:wmo:42887:1,2015-12-02T22:20:00Z,28.1910,-88.4960,48.2,8.7,10.0,99.0,'11111222,11111222,11144222' 
ADCP,ioos:station:wmo:42887:1,2015-12-02T22:40:00Z,28.1910,-88.4960,48.2,9.2,345.0,99.0,'11111222,11111222,11144222' 
ADCP,ioos:station:wmo:42887:1,2015-12-02T23:00:00Z,28.1910,-88.4960,48.2,7.3,4.0,99.0,'11111222,11111222,11144222' 
ADCP,ioos:station:wmo:42887:1,2015-12-02T23:20:00Z,28.1910,-88.4960,48.2,7.3,5.0,99.0,'11111222,11111222,11144222' 
ADCP,ioos:station:wmo:42887:1,2015-12-02T23:40:00Z,28.1910,-88.4960,48.2,8.7,1.0,99.0,'11111222,11111222,11144222' 
ADCP,ioos:station:wmo:42887:1,2015-12-03T00:00:00Z,28.1910,-88.4960,48.2,7.9,350.0,99.0,'11111222,11111222,11144222' 
ADCP,ioos:station:wmo:42887:1,2015-12-03T00:20:00Z,28.1910,-88.4960,48.2,7.1,2.0,99.0,'11111222,11111222,11144222' 
ADCP,ioos:station:wmo:42887:1,2015-12-03T00:40:00Z,28.1910,-88.4960,48.2,9.1,354.0,99.0,'11111222,11111222,11144222' 
ADCP,ioos:station:wmo:42887:1,2015-12-03T01:00:00Z,28.1910,-88.4960,48.2,7.6,351.0,99.0,'11111222,11111222,11144222' 
ADCP,ioos:station:wmo:42887:1,2015-12-03T01:20:00Z,28.1910,-88.4960,48.2,7.6,355.0,99.0,'11111222,11111222,11144222' 
ADCP,ioos:station:wmo:42887:1,2015-12-03T01:40:00Z,28.1910,-88.4960,48.2,7.7,6.0,99.0,'11111222,11111222,11144222' 
ADCP,ioos:station:wmo:42887:1,2015-12-03T02:00:00Z,28.1910,-88.4960,48.2,8.7,2.0,99.0,'11111222,11111222,11144222' 
ADCP,ioos:station:wmo:42887:1,2015-12-03T02:20:00Z,28.1910,-88.4960,48.2,9.8,0.0,99.0,'11111222,11111222,11144222' 
ADCP,ioos:station:wmo:42887:1,2015-12-03T02:40:00Z,28.1910,-88.4960,48.2,9.4,353.0,99.0,'11111222,11111222,11144222' 
ADCP,ioos:station:wmo:42887:1,2015-12-03T03:00:00Z,28.1910,-88.4960,48.2,9.5,349.0,99.0,'11111222,11111222,11144222' 
ADCP,ioos:station:wmo:42887:1,2015-12-03T03:20:00Z,28.1910,-88.4960,48.2,8.6,348.0,99.0,'11111222,11111222,11144222' 
ADCP,ioos:station:wmo:42887:1,2015-12-03T03:40:00Z,28.1910,-88.4960,48.2,8.1,9.0,99.0,'11111222,11111222,11144222' 
ADCP,ioos:station:wmo:42887:1,2015-12-03T04:00:00Z,28.1910,-88.4960,48.2,8.2,4.0,99.0,'11111222,11111222,11144222' 
ADCP,ioos:station:wmo:42887:1,2015-12-03T04:20:00Z,28.1910,-88.4960,48.2,9.1,357.0,99.0,'11111222,11111222,11144222' 
ADCP,ioos:station:wmo:42887:1,2015-12-03T04:40:00Z,28.1910,-88.4960,48.2,9.4,359.0,99.0,'11111222,11111222,11144222' 
ADCP,ioos:station:wmo:42887:1,2015-12-03T05:00:00Z,28.1910,-88.4960,48.2,10.2,357.0,99.0,'11111222,11111222,11144222' 
ADCP,ioos:station:wmo:42887:1,2015-12-03T05:20:00Z,28.1910,-88.4960,48.2,9.4,354.0,99.0,'11111222,11111222,11144222' 
ADCP,ioos:station:wmo:42887:1,2015-12-03T05:40:00Z,28.1910,-88.4960,48.2,9.9,6.0,99.0,'11111222,11111222,11144222' 
ADCP,ioos:station:wmo:42887:1,2015-12-03T06:00:00Z,28.1910,-88.4960,48.2,10.0,0.0,99.0,'11111222,11111222,11144222' 
ADCP,ioos:station:wmo:42887:1,2015-12-03T06:20:00Z,28.1910,-88.4960,48.2,10.2,5.0,99.0,'11111222,11111222,11144222' 
ADCP,ioos:station:wmo:42887:1,2015-12-03T06:40:00Z,28.1910,-88.4960,48.2,10.1,4.0,99.0,'11111222,11111222,11144222' 
ADCP,ioos:station:wmo:42887:1,2015-12-03T07:00:00Z,28.1910,-88.4960,48.2,8.6,6.0,99.0,'11111222,11111222,11144222' 
ADCP,ioos:station:wmo:42887:1,2015-12-03T07:20:00Z,28.1910,-88.4960,48.2,10.2,10.0,99.0,'11111222,11111222,11144222' 
ADCP,ioos:station:wmo:42887:1,2015-12-03T07:40:00Z,28.1910,-88.4960,48.2,9.6,8.0,99.0,'11111222,11111222,11144222' 
ADCP,ioos:station:wmo:42887:1,2015-12-03T08:00:00Z,28.1910,-88.4960,48.2,9.4,4.0,99.0,'11111222,11111222,11144222' 
ADCP,ioos:station:wmo:42887:1,2015-12-03T08:20:00Z,28.1910,-88.4960,48.2,10.9,360.0,99.0,'11111222,11144222,11144222' 
ADCP,ioos:station:wmo:42887:1,2015-12-03T08:40:00Z,28.1910,-88.4960,48.2,10.1,2.0,99.0,'11111222,11111222,11144222' 
ADCP,ioos:station:wmo:42887:1,2015-12-03T09:00:00Z,28.1910,-88.4960,48.2,9.9,0.0,99.0,'11111222,11111222,11144222' 
ADCP,ioos:station:wmo:42887:1,2015-12-03T09:20:00Z,28.1910,-88.4960,48.2,10.2,0.0,99.0,'11111222,11111222,11144222' 
ADCP,ioos:station:wmo:42887:1,2015-12-03T09:40:00Z,28.1910,-88.4960,48.2,9.9,6.0,99.0,'11111222,11111222,11144222' 
ADCP,ioos:station:wmo:42887:1,2015-12-03T10:00:00Z,28.1910,-88.4960,48.2,8.2,354.0,99.0,'11111222,11111222,11144222' 
ADCP,ioos:station:wmo:42887:1,2015-12-03T10:20:00Z,28.1910,-88.4960,48.2,10.6,7.0,99.0,'11111222,11111222,11144222' 
ADCP,ioos:station:wmo:42887:1,2015-12-03T10:40:00Z,28.1910,-88.4960,48.2,9.5,6.0,99.0,'11111222,11111222,11144222' 
ADCP,ioos:station:wmo:42887:1,2015-12-03T11:00:00Z,28.1910,-88.4960,48.2,10.5,10.0,99.0,'11111222,11111222,11144222' 
ADCP,ioos:station:wmo:42887:1,2015-12-03T11:20:00Z,28.1910,-88.4960,48.2,9.1,14.0,99.0,'11111222,11111222,11144222' 
ADCP,ioos:station:wmo:42887:1,2015-12-03T11:40:00Z,28.1910,-88.4960,48.2,8.8,9.0,99.0,'11111222,11111222,11144222' 
ADCP,ioos:station:wmo:42887:1,2015-12-03T12:00:00Z,28.1910,-88.4960,48.2,8.9,11.0,99.0,'11111222,11111222,11144222' 
ADCP,ioos:station:wmo:42887:1,2015-12-03T12:20:00Z,28.1910,-88.4960,48.2,9.2,8.0,99.0,'11111222,11111222,11144222' 
ADCP,ioos:station:wmo:42887:1,2015-12-03T12:40:00Z,28.1910,-88.4960,48.2,9.0,15.0,99.0,'11111222,11111222,11144222' 
ADCP,ioos:station:wmo:42887:1,2015-12-03T13:00:00Z,28.1910,-88.4960,48.2,8.2,6.0,99.0,'11111222,11111222,11144222' 
ADCP,ioos:station:wmo:42887:1,2015-12-03T13:20:00Z,28.1910,-88.4960,48.2,7.6,23.0,99.0,'11111222,11111222,11144222' 
ADCP,ioos:station:wmo:42887:1,2015-12-03T13:40:00Z,28.1910,-88.4960,48.2,8.4,10.0,99.0,'11111222,11111222,11144222' 
ADCP,ioos:station:wmo:42887:1,2015-12-03T14:00:00Z,28.1910,-88.4960,48.2,7.7,356.0,99.0,'11111222,11111222,11144222' 
ADCP,ioos:station:wmo:42887:1,2015-12-03T14:20:00Z,28.1910,-88.4960,48.2,8.6,7.0,99.0,'11111222,11111222,11144222' 
ADCP,ioos:station:wmo:42887:1,2015-12-03T14:40:00Z,28.1910,-88.4960,48.2,7.6,6.0,99.0,'11111222,11111222,11144222' 
ADCP,ioos:station:wmo:42887:1,2015-12-03T15:00:00Z,28.1910,-88.4960,48.2,8.3,9.0,99.0,'11111222,11111222,11144222' 
ADCP,ioos:station:wmo:42887:1,2015-12-03T15:20:00Z,28.1910,-88.4960,48.2,7.5,20.0,99.0,'11111222,11111222,11144222' 
ADCP,ioos:station:wmo:42887:1,2015-12-03T15:40:00Z,28.1910,-88.4960,48.2,5.8,9.0,99.0,'11111222,11111222,11144222' 
ADCP,ioos:station:wmo:42887:1,2015-12-03T16:00:00Z,28.1910,-88.4960,48.2,6.3,3.0,99.0,'11111222,11111222,11144222' 
ADCP,ioos:station:wmo:42887:1,2015-12-03T16:20:00Z,28.1910,-88.4960,48.2,6.3,14.0,99.0,'11111222,11111222,11144222' 
ADCP,ioos:station:wmo:42887:1,2015-12-03T16:40:00Z,28.1910,-88.4960,48.2,7.3,14.0,99.0,'11111222,11111222,11144222' 
ADCP,ioos:station:wmo:42887:1,2015-12-03T17:00:00Z,28.1910,-88.4960,48.2,6.8,11.0,99.0,'11111222,11111222,11144222' 
ADCP,ioos:station:wmo:42887:1,2015-12-03T17:20:00Z,28.1910,-88.4960,48.2,5.9,28.0,99.0,'11111222,11111222,11144222' 
ADCP,ioos:station:wmo:42887:1,2015-12-03T17:40:00Z,28.1910,-88.4960,48.2,6.9,16.0,99.0,'11111222,11111222,11144222' 
ADCP,ioos:station:wmo:42887:1,2015-12-03T18:00:00Z,28.1910,-88.4960,48.2,6.9,10.0,99.0,'11111222,11111222,11144222' 
ADCP,ioos:station:wmo:42887:1,2015-12-03T18:20:00Z,28.1910,-88.4960,48.2,7.4,349.0,99.0,'11111222,11111222,11144222' 
ADCP,ioos:station:wmo:42887:1,2015-12-03T18:40:00Z,28.1910,-88.4960,48.2,7.9,350.0,99.0,'11111222,11111222,11144222' 
ADCP,ioos:station:wmo:42887:1,2015-12-03T19:00:00Z,28.1910,-88.4960,48.2,6.4,12.0,99.0,'11111222,11111222,11144222' 
ADCP,ioos:station:wmo:42887:1,2015-12-03T19:20:00Z,28.1910,-88.4960,48.2,5.9,22.0,99.0,'11111222,11111222,11144222' 